Toronto Pearson, Ontario

8:13 AM EDT on August 19, 2017 (GMT -0400)
Toronto-Pearson International

Weather History for CYYZ - February, 2013

Change the Weather History Date:

Saturday, February 2, 2013

  Actual Average Record
Temperature  
Mean Temperature 17 °F -  
Max Temperature 21 °F 30 °F 42 °F (1998)
Min Temperature 12 °F 14 °F 3 °F (2015)
Degree Days  
Heating Degree Days 48    
Moisture  
Dew Point 10 °F    
Average Humidity 70    
Maximum Humidity 85    
Minimum Humidity 58    
Precipitation  
Precipitation 0.01 in 0.06 in - ()
Sea Level Pressure  
Sea Level Pressure 30.07 in    
Wind  
Wind Speed 11 mph ()    
Max Wind Speed 18 mph    
Max Gust Speed 23 mph    
Visibility 12.2 miles    
Events Snow    
Averages and records for this station are not official NWS values.
T = Trace of Precipitation, MM = Missing Value Source: Averaged Metar Reports

Daily Weather History Graph

Daily Weather History Graph

Search for Another Location

Airport or City:

Trip Planner

Search our weather history database for the weather conditions in past years. The results will help you decide how hot, cold, wet, or windy it might be!

Date:

Astronomy

Feb. 02, 2013 Rise Set
Actual Time 7:33 AM EST 5:31 PM EST
Civil Twilight 7:03 AM EST 6:01 PM EST
Nautical Twilight 6:29 AM EST 6:36 PM EST
Astronomical Twilight 5:55 AM EST 7:09 PM EST
Moon No Moon Rise 10:28 AM EST (2/2)
Length of Visible Light 10h 58m
Length of Day
9h 57m
Waning Gibbous, 60% of the Moon is Illuminated
Feb 2
Waning Gibbous
Feb 3
Last Quarter
Feb 10
New
Feb 17
First Quarter
Feb 25
Full

Hourly Weather History & Observations

Time (EST) Temp. Windchill Dew Point Humidity Pressure Visibility Wind Dir Wind Speed Gust Speed Precip Events Conditions
12:00 AM 17.6 °F 5.0 °F 8.6 °F 68% 30.18 in 15.0 mi WSW 11.5 mph - N/A   Partly Cloudy
1:00 AM 17 °F - 9 °F 58% 30.17 in 15 mi SW 13.8 mph - -   Partly Cloudy
1:00 AM 15.8 °F 2.1 °F 8.6 °F 73% 30.17 in 15.0 mi SW 12.7 mph 20.7 mph N/A   Scattered Clouds
1:25 AM 15.8 °F 0.3 °F - N/A% - 7.0 mi SW 16.1 mph - N/A Snow Light Snow Showers
2:00 AM 15.8 °F 2.1 °F 8.6 °F 73% 30.15 in 15.0 mi SW 12.7 mph - N/A   Mostly Cloudy
3:00 AM 15.8 °F 0.9 °F 6.8 °F 68% 30.17 in 15.0 mi WSW 15.0 mph 23.0 mph N/A   Overcast
4:00 AM 14.0 °F -2.5 °F 5.0 °F 67% 30.15 in 15.0 mi WSW 17.3 mph - N/A   Mostly Cloudy
5:00 AM 14.0 °F -3.0 °F 5.0 °F 67% 30.14 in 15.0 mi SW 18.4 mph - N/A   Overcast
6:00 AM 14.0 °F 0.5 °F 5.0 °F 67% 30.12 in 15.0 mi SW 11.5 mph 18.4 mph N/A   Overcast
6:55 AM 14.0 °F -0.8 °F - N/A% - 12.0 mi SW 13.8 mph - N/A Snow Light Snow Showers
7:00 AM 15 °F - 7 °F 59% 30.12 in 10 mi SW 12.7 mph - - Snow Light Snow Showers
7:00 AM 14.0 °F 0.5 °F 6.8 °F 73% 30.12 in 10.0 mi SW 11.5 mph - N/A Snow Light Snow Showers
8:00 AM 15.8 °F 5.1 °F 8.6 °F 73% 30.10 in 4.0 mi SW 8.1 mph - N/A Snow Light Snow Showers
9:00 AM 15.8 °F 2.1 °F 10.4 °F 79% 30.09 in 4.0 mi SW 12.7 mph - N/A Snow Light Snow Showers
10:00 AM 17.6 °F 4.3 °F 12.2 °F 79% 30.07 in 6.0 mi SW 12.7 mph - N/A Snow Light Snow Showers
11:00 AM 19.4 °F 7.9 °F 12.2 °F 74% 30.06 in 10.0 mi SW 10.4 mph 17.3 mph N/A Snow Light Snow Showers
12:00 PM 19.4 °F 5.5 °F 12.2 °F 74% 30.04 in 10.0 mi WSW 15.0 mph 21.9 mph N/A Snow Light Snow Showers
1:00 PM 20 °F - 12 °F 59% 30.01 in 10 mi WSW 13.8 mph - - Snow Light Snow Showers
1:00 PM 21.2 °F 8.3 °F 12.2 °F 68% 30.01 in 10.0 mi WSW 13.8 mph - N/A Snow Light Snow Showers
2:00 PM 21.2 °F 9.5 °F 12.2 °F 68% 29.99 in 12.0 mi WSW 11.5 mph - N/A Snow Light Snow Showers
3:00 PM 21.2 °F 10.1 °F 12.2 °F 68% 29.97 in 10.0 mi WSW 10.4 mph - N/A Snow Light Snow Showers
4:00 PM 21.2 °F 10.9 °F 14.0 °F 74% 29.98 in 8.0 mi WNW 9.2 mph - N/A Snow Light Snow
4:45 PM 21.2 °F 10.1 °F - N/A% - 15.0 mi West 10.4 mph - N/A   Mostly Cloudy
5:00 PM 21.2 °F 11.7 °F 12.2 °F 68% 29.98 in 15.0 mi WNW 8.1 mph - N/A   Mostly Cloudy
6:00 PM 19.4 °F 8.6 °F 10.4 °F 68% 29.99 in 15.0 mi WNW 9.2 mph - N/A   Mostly Cloudy
7:00 PM 18 °F - 10 °F 60% 30.01 in 15 mi NW 8.1 mph - -   Partly Cloudy
7:00 PM 17.6 °F 7.3 °F 10.4 °F 73% 30.01 in 15.0 mi NW 8.1 mph - N/A   Mostly Cloudy
8:00 PM 17.6 °F 7.3 °F 8.6 °F 68% 30.01 in 15.0 mi NW 8.1 mph - N/A   Scattered Clouds
9:00 PM 15.8 °F 5.1 °F 8.6 °F 73% 30.01 in 15.0 mi North 8.1 mph - N/A   Scattered Clouds
10:00 PM 14.0 °F 3.9 °F 8.6 °F 79% 30.01 in 15.0 mi NNW 6.9 mph - N/A   Partly Cloudy
11:00 PM 12.2 °F 6.1 °F 8.6 °F 85% 30.01 in 15.0 mi North 3.5 mph - N/A   Partly Cloudy